Showing default

COSMOS 90, 1588

Orbit data source: Space-Track

COSMOS 90, 1588 is a payload satellite owned by OKB-10 (CIS) in LEO that was launched on Sat, 18 Sep 1965 UTC via a KOSMOS 65S3 launch vehicle from the Tyuratam Missile And Space Complex (TTMTR). Payload-class satellites include a variety of spacecraft equipped with specific instruments for various scientific and technological missions. These include communications satellites like Starlink; space stations such as the ISS; scientific satellites like the Hubble; Earth observation satellites from companies like Planet Labs, Umbra, and HawkEye 360; GPS; miniature CubeSats for education and research; and military/defense satellites.

Loading next visibility...
Identifier
1588, 1965-073E
Orbit
LEO
Country
Flag of CISCIS
Related business
Manufacturer
OKB-10
Mission
Spacecraft
Bus & Motor
STRELA-1 11F610, Unknown motor
Mass
50 kg wet, 50 kg dry
Launch date (UTC)
1965-09-18 (60 years ago)
Launch vehicle
KOSMOS 65S3
Launch site
Tyuratam Missile And Space Complex (TTMTR)
Object type
Payload
Rocket body
Debris
Shape & HBR
Unknown
Radar Cross Section
Medium (>0.1 m² and <1 m²)

Expand to show TLE details & history
Last TLE update: 10 hours ago

TLE from 10 hours ago
0 COSMOS 90
1  1588U 65073E   25302.36898285 -.00000081  00000-0  85367-4 0  9997
2  1588  56.0532 157.4752 0157000 135.7616  34.9927 12.34590411710482
Epoch: 2025-10-29T08:51Z
TLE epoch observation values (Epoch: 2025-10-29T08:51:20.118Z)
Latitude
6.75513°
Longitude
162.1476°
Altitude
1,428.988 km
Speed
7.193 km/s
True Right ascension
22h 11m 41s
True Declination
6° 43' 07"
Sunlit
Object was in daylight at epoch
Visualization orbit readout
Latitude
Unknown
Longitude
Unknown
Altitude
Unknown
Speed
Unknown
Apparent Right ascension
Unknown
Apparent Declination
Unknown
Sunlit
N/A
Visualization observer readout
Local Sidereal Time
14:37:07
Azimuth
Unknown
Elevation
Unknown
Doppler factor
Unknown
Orbital elements
Apogee altitude
1,653.593 km
Perigee altitude
1,405.295 km
Semi-major axis
7,907.581 km
Eccentricity
0.0157
Inclination
56.0532°
RAAN
157.4752°
Arg. of periapsis
135.7616°
True anomaly
36.04121°
Mean anomaly
34.9927°
Eccentric anomaly
35.51526°
Mean motion
3.08658 °/min
Orbital period
116.63 mins
BSTAR
0.000085367
Loading maneuver chart data...
Computing Atmospheric mass density...
Loading historical data...
Loading historical data...
Loading historical data...
Loading historical data...
Loading historical data...
Loading historical data...
Loading historical data...

Documentation

Showing up to 5 results
|